ATLAS 5 CENTAUR DEB, 46637

Orbit data source: Space-Track

ATLAS 5 CENTAUR DEB, 46637 is space debris in HEO originally from a launch on Wed, 17 Sep 2014 UTC launched from the Air Force Eastern Test Range (AFETR). Debris objects in space refer to the collection of defunct objects orbiting the Earth. Examples of debris include non-operational satellites, rocket bodies, and fragments generated from explosions, collisions, or faulty payload assembly.

Loading next visibility...
Identifier
46637, 2014-055CM
Orbit
HEO
Country
Flag of USUS
Related business
Flag of USUnited Launch Alliance/Lockheed Martin (US)
Manufacturer
Unknown
Mission
Spacecraft
Bus & Motor
Unknown
Mass
Unknown
Launch date (UTC)
2014-09-17 (12 years ago)
Launch vehicle
Unknown
Launch site
Air Force Eastern Test Range (AFETR)
Object type
Payload
Rocket body
Debris
Shape & HBR
Unknown shape, 1.1 m
Radar Cross Section
Medium (>0.1 m² and <1 m²)

Expand to show TLE details & history
Last TLE update: 22 hours ago

TLE from 22 hours ago
0 ATLAS 5 CENTAUR DEB
1 46637U 14055CM  26254.77676151 -.00000224  00000-0  00000-0 0  9999
2 46637  21.3216  76.5776 5110551 285.5716  25.3533  1.94671201 42168
Epoch: 2026-09-11T18:38Z
TLE epoch observation values (Epoch: 2026-09-11T18:38:32.194Z)
Latitude
-0.00009°
Longitude
166.22471°
Altitude
11,208.644 km
Speed
5.533 km/s
True Right ascension
05h 06m 36s
True Declination
0° 00' 00"
Sunlit
Object was in daylight at epoch
Visualization orbit readout
Latitude
Unknown
Longitude
Unknown
Altitude
Unknown
Speed
Unknown
Apparent Right ascension
Unknown
Apparent Declination
Unknown
Sunlit
N/A
Visualization observer readout
Local Sidereal Time
09:30:06
Azimuth
Unknown
Elevation
Unknown
Doppler factor
Unknown
Orbital elements
Apogee altitude
34,564.973 km
Perigee altitude
6,870.172 km
Semi-major axis
27,095.71 km
Eccentricity
0.51106
Inclination
21.3216°
RAAN
76.5776°
Arg. of periapsis
285.5716°
True anomaly
74.31653°
Mean anomaly
25.3533°
Eccentric anomaly
46.64368°
Mean motion
0.48662 °/min
Orbital period
739.79 mins
BSTAR
0
Loading maneuver chart data...
Computing Atmospheric mass density...

Documentation

Showing up to 5 results
|